Flag for Uruguay Weather past 2 weeks in Canelones, Uruguay

Now
52 °F

Clear.


Feels Like: 49 °F
Forecast: 39 / 66 °F
Wind: 7 mph from South

Location: Carrasco

Current Time: Sep 16, 2014 at 2:27:29 AM

Latest Report: Sep 16, 2014 at 2:00 AM


Visibility: 10 mi

Pressure: 30.07 "Hg

Humidity: 72%

Dew point: 43 °F

Location of CanelonesLocation

Historic Weather in Canelones — Graph

°F

Canelones temperature yesterday

Maximum temperature yesterday: 61 °F (at 2:00 PM)
Minimum temperature yesterday: 52 °F (at 9:00 PM)
Average temperature yesterday: 56 °F

Past Weeks' High & Low Weather Summary

 TemperatureHumidityPressure
High75 °F (Sep 8, 4:00 PM)100% (Sep 1, 7:00 AM)30.27 "Hg (Sep 1, 7:00 AM)
Low43 °F (Sep 11, 7:00 AM)26% (Sep 7, 3:00 PM)29.47 "Hg (Sep 9, 9:00 AM)
Average59 °F78%29.98 "Hg
* Reported Sep 1 1:00 AM — Sep 16 1:00 AM, Canelones, Weather by CustomWeather, © 2014

Note: Actual official high and low records may vary slightly from our data, if they occured in-between our weather recording intervals... More about our weather records

Advertising

Canelones weather history for previous 24 hours

 ConditionsComfort  
Time TempWeatherWind HumidityBarometerVisibility
1:00 AM
Sep 16
52 °FClear.7 mph72%30.07 "Hg10 mi
12:00 AM52 °FClear.7 mph72%30.07 "Hg10 mi
11:00 PM
Sep 15
52 °FClear.9 mph82%30.07 "Hg10 mi
10:00 PM52 °FClear.10 mph82%30.07 "Hg10 mi
9:00 PM52 °FClear.8 mph88%30.04 "Hg10 mi
8:00 PM54 °FClear.12 mph77%30.04 "Hg10 mi
7:00 PM54 °FPassing clouds.12 mph82%30.01 "HgN/A
6:00 PM55 °FPassing clouds.12 mph82%30.01 "HgN/A
5:00 PM57 °FPartly sunny.13 mph77%30.01 "HgN/A
4:00 PM59 °FPartly sunny.12 mph77%29.98 "HgN/A
3:00 PM59 °FPartly sunny.15 mph77%29.98 "HgN/A
2:00 PM61 °FPartly sunny.12 mph77%29.98 "HgN/A
1:00 PM57 °FPartly sunny.15 mph82%29.98 "HgN/A
12:00 PM59 °FPartly sunny.15 mph82%29.98 "HgN/A
11:00 AM59 °FScattered clouds.14 mph82%29.98 "HgN/A
10:00 AM59 °FSunny.13 mph77%29.98 "Hg10 mi
9:00 AM57 °FPartly sunny.13 mph77%29.95 "HgN/A
8:00 AM55 °FPartly sunny.14 mph88%29.95 "HgN/A
7:00 AM55 °FLight rain. Partly sunny.12 mph88%29.95 "HgN/A
6:00 AM55 °FRain. Overcast.14 mph88%29.92 "Hg5 mi
5:00 AM55 °FRain. Overcast.16 mph94%29.89 "Hg5 mi
4:00 AM57 °FRain. Low clouds.15 mph94%29.89 "Hg5 mi
3:00 AM57 °FLight rain. Mostly cloudy.15 mph94%29.89 "HgN/A
2:00 AM57 °FRain. Low clouds.15 mph94%29.89 "Hg4 mi
Weather by CustomWeather, © 2014

See weather overviewHow to use our weather pages